SP3ZBZ-13 Weather Reports


Display with metric or nautical units.
time (UTC)temp
F
wind
direction
speed
MPH
gust
MPH
rain 1hr
in
rain 24hr
in
rain mn
in
humidity
%
barometer
mb
20260507012119 44 338 5.0 9.0 0.00 0.00 0.00 92 1004.9
20260507010619 44 12 6.0 10.0 0.00 0.00 0.00 91 1005.0
20260507005117 44 342 4.0 8.0 0.00 0.00 0.00 91 1005.0
20260507003617 44 22 4.0 8.0 0.00 0.00 0.00 92 1005.0
20260507002116 44 338 4.0 6.0 0.00 0.00 0.00 93 1004.7
20260507000614 44 348 4.0 7.0 0.00 0.00 0.00 93 1004.7
20260506235114 44 356 5.0 7.0 0.00 0.00 0.00 92 1004.8
20260506233613 44 5 6.0 10.0 0.00 0.00 0.00 92 1004.7
20260506232112 45 0 5.0 9.0 0.00 0.00 0.00 92 1004.5
20260506230611 45 3 5.0 11.0 0.00 0.00 0.00 92 1004.4
20260506225110 45 348 6.0 11.0 0.00 0.00 0.00 92 1004.1
20260506223609 45 312 5.0 10.0 0.00 0.00 0.00 93 1004.2
20260506222108 45 0 6.0 9.0 0.00 0.00 0.00 93 1004.1
20260506220607 45 348 5.0 10.0 0.00 0.00 0.00 92 1004.1
20260506215106 45 324 6.0 10.0 0.00 0.00 0.00 92 1003.8
20260506213605 45 338 5.0 9.0 0.00 0.00 0.00 92 1003.9
20260506212104 46 0 4.0 6.0 0.00 0.00 0.00 92 1004.1
20260506210603 45 18 4.0 6.0 0.00 0.00 0.00 92 1004.1
20260506205102 45 294 5.0 10.0 0.00 0.00 0.00 92 1004.1
20260506203601 46 342 5.0 9.0 0.00 0.00 0.00 92 1003.9
20260506202100 46 348 6.0 10.0 0.00 0.00 0.00 93 1003.7
20260506200559 46 18 6.0 11.0 0.00 0.00 0.00 93 1003.8
20260506195058 46 60 6.0 10.0 0.00 0.00 0.00 93 1003.5
20260506193557 47 0 6.0 9.0 0.00 0.00 0.00 94 1003.6
20260506192056 47 348 6.0 10.0 0.00 0.00 0.00 94 1003.5
20260506190555 48 356 6.0 11.0 0.00 0.00 0.00 92 1003.2
20260506185054 49 354 5.0 9.0 0.00 0.00 0.00 91 1003.0
20260506183554 50 258 3.0 6.0 0.00 0.00 0.00 89 1002.6
20260506182052 50 294 4.0 6.0 0.00 0.00 0.00 89 1002.5
20260506180552 50 306 4.0 7.0 0.00 0.00 0.00 90 1002.3
20260506175051 50 0 4.0 8.0 0.00 0.00 0.00 90 1002.3
20260506173550 51 270 4.0 8.0 0.00 0.00 0.00 90 1002.3
20260506172049 51 264 4.0 9.0 0.00 0.00 0.00 90 1002.3
20260506170548 51 300 5.0 9.0 0.00 0.00 0.00 90 1002.1
20260506165047 52 276 5.0 10.0 0.00 0.00 0.00 90 1002.0
20260506163546 53 288 4.0 8.0 0.00 0.00 0.00 89 1002.0
20260506162045 53 300 4.0 7.0 0.00 0.00 0.00 89 1002.0
20260506160544 53 253 5.0 8.0 0.00 0.00 0.00 90 1002.0
20260506155044 53 234 4.0 6.0 0.00 0.00 0.00 89 1001.8
20260506153543 53 270 4.0 7.0 0.00 0.00 0.00 90 1001.6
20260506152042 53 276 4.0 8.0 0.00 0.00 0.00 90 1001.5
20260506150540 54 246 4.0 6.0 0.00 0.00 0.00 89 1001.4
20260506145039 54 258 4.0 6.0 0.00 0.00 0.00 91 1001.4
20260506143538 54 281 3.0 5.0 0.00 0.00 0.00 91 1001.5
20260506142038 54 270 3.0 5.0 0.00 0.00 0.00 91 1001.3
20260506140536 54 270 2.0 4.0 0.00 0.00 0.00 91 1001.3
20260506135035 54 321 3.0 5.0 0.00 0.00 0.00 92 1001.1
20260506133534 54 330 3.0 6.0 0.00 0.00 0.00 93 1001.0
20260506132033 54 294 3.0 4.0 0.01 0.00 0.00 93 1000.9
20260506130532 54 351 3.0 5.0 0.01 0.00 0.00 93 1000.9
20260506125032 53 324 3.0 6.0 0.01 0.00 0.00 92 1000.8
20260506123531 54 324 3.0 6.0 0.00 0.00 0.00 90 1000.8
20260506122030 55 312 3.0 6.0 0.00 0.00 0.00 86 1000.6
20260506120529 56 348 3.0 5.0 0.00 0.00 0.00 81 1000.6
20260506115028 55 324 3.0 4.0 0.00 0.00 0.00 81 1000.6
20260506113527 55 342 3.0 5.0 0.00 0.00 0.00 82 1000.5
20260506112026 55 332 2.0 5.0 0.00 0.00 0.00 82 1000.6
20260506110525 55 318 1.0 3.0 0.00 0.00 0.00 81 1000.7
20260506105023 54 342 3.0 4.0 0.00 0.00 0.00 82 1000.6
20260506103523 54 319 1.0 3.0 0.00 0.00 0.00 83 1000.7
20260506102022 54 324 1.0 4.0 0.00 0.00 0.00 82 1000.7
20260506100521 54 36 2.0 5.0 0.00 0.00 0.00 84 1000.6
20260506095020 53 42 2.0 4.0 0.00 0.00 0.00 84 1000.5
20260506093519 53 48 2.0 5.0 0.00 0.00 0.00 85 1000.7
20260506092018 52 72 3.0 6.0 0.00 0.00 0.00 84 1000.6
20260506090517 52 84 3.0 6.0 0.00 0.00 0.00 85 1000.5
20260506085016 52 27 4.0 6.0 0.00 0.00 0.00 86 1000.6
20260506083515 51 66 3.0 6.0 0.00 0.00 0.00 87 1000.6
20260506082014 51 78 4.0 6.0 0.00 0.00 0.00 87 1000.7
20260506080513 51 24 4.0 6.0 0.00 0.00 0.00 87 1000.7
20260506073511 50 54 4.0 7.0 0.01 0.00 0.00 89 1000.6
20260506072010 50 60 4.0 8.0 0.01 0.00 0.00 89 1000.7
20260506070509 50 36 6.0 10.0 0.00 0.00 0.00 88 1000.4
20260506062007 49 42 6.0 10.0 0.00 0.00 0.00 88 1000.6
20260506060506 49 60 6.0 10.0 0.00 0.00 0.00 88 1000.7
20260506050502 49 24 5.0 10.0 0.00 0.00 0.00 90 1000.7
20260506045000 49 72 5.0 10.0 0.00 0.00 0.00 90 1000.8
20260506043459 48 66 6.0 11.0 0.00 0.00 0.00 90 1001.1
20260506041958 48 24 5.0 9.0 0.00 0.00 0.00 91 1001.3
20260506040457 48 30 4.0 8.0 0.00 0.00 0.00 92 1001.6
20260506034956 48 348 4.0 8.0 0.00 0.00 0.00 92 1001.8
20260506033455 48 36 4.0 7.0 0.00 0.00 0.00 92 1001.9
20260506031955 48 12 4.0 6.0 0.00 0.00 0.00 92 1002.1
20260506030453 48 356 4.0 8.0 0.00 0.00 0.00 91 1002.4
20260506024952 48 36 4.0 6.0 0.01 0.00 0.00 92 1002.5
20260506023451 48 11 5.0 10.0 0.01 0.00 0.00 92 1002.6
20260506021951 48 72 6.0 10.0 0.01 0.00 0.00 92 1002.5
20260506020450 49 18 6.0 10.0 0.00 0.00 0.00 91 1002.7
20260506014948 49 48 6.0 10.0 0.00 0.00 0.00 92 1002.8
20260506013448 49 18 4.0 9.0 0.00 0.00 0.00 93 1002.9